www.pogodaiklimat.ru

Погода и климат >> Архив погоды >> Италия >> Capo Frasca


ПОГОДА в Capo Frasca

  • Прогноз погоды в Capo Frasca
  • Монитор погоды в Capo Frasca
  • Климат города

АРХИВ ПОГОДЫ в Capo Frasca

Время (UTC), дата Ветер
(напр.,м/с)
 
Видим.   Явления Облачность Т
(С)
Тd
(С)
f
(%)
Тe
(С)
Тes
(С)
Комфортность P
(гПа)
Po
(гПа)
Тmin
(С)
Tmax
(С)
R
(мм)
R24
(мм)
S
(см)
06 12.12 СЗ 5 20 км 5/4 600 м
[Cu Sc Ci fib]
+12.4 +12.4 100 +10 +10 1018.7 1007.3 +11.6
09 12.12 СЗ 5 20 км 9/4 600 м
[Cu Sc As op Cs]
+13.6 +12.5 93 +12 +12 1019.0 1007.6
12 12.12 СЗ 1 20 км 9/5 600 м
[Cu Sc Ac trans Cs]
+14.2 +13.7 97 +15 +17 1018.4 1007.0
15 12.12 0 20 км 9/4 600 м
[Cu Sc Ci ing]
+13.8 +13.2 96 1017.4 1006.0
18 12.12 0 20 км 9/5 600 м
[Cu Sc Ci ing]
+11.8 +11.8 100 1017.2 1005.7 +15.0
06 13.12 0 15 км 9/1 840 м
[Cu med, cong Ac As]
+9.2 +8.6 96 1013.4 1001.9 +8.4
09 13.12 ЮВ 4 15 км 10/4 840 м
[Cu med, cong Ac As Ci fib]
+9.8 +8.9 94 +7 +8 1012.4 1000.9
12 13.12 Ю 4 15 км 10/6 600 м
[Cu Sc Ac As]
+14.2 +13.1 93 +13 +13 1009.6 998.3
15 13.12 ЮЗ 2 8000 м слабый дождь 10/6 300 м
[Cu Sc As trans]
+14.2 +13.3 94 +14 +14 1008.1 996.8
18 13.12 Ю 8 7000 м слабый дождь {ливн. осадки} 10/9 300 м
[Cu med, cong As trans]
+14.4 +13.3 93 +12 +12 1006.3 995.1 +15.0 3
06 14.12 Ю 1 10 км 5/5 450 м
[Cu hum]
+12.0 +10.6 91 +13 +13 1005.4 994.1 +12.0
09 14.12 ЮВ 1 10 км 10/10 750 м
[Cu Sc]
+12.2 +10.8 91 +13 +13 1006.4 995.1
12 14.12 СВ 5 20 км 10/5 300 м
[Cu Sc Ac trans]
+12.8 +11.4 91 +11 +11 1007.0 995.7
15 14.12 С 5 20 км 10/6 450 м
[Cu Sc Ac trans]
+13.0 +11.2 89 +11 +11 1007.8 996.4
18 14.12 С 4 20 км 10/10 900 м
[Cu Sc]
+11.0 +9.9 93 +8 +8 1010.3 998.8 +13.0
06 15.12 С 3 15 км 5/5 1200 м
[Cu med, cong]
+10.8 +7.1 78 +9 +9 1016.4 1004.9 +9.6
09 15.12 СЗ 10 20 км 3/3 750 м
[Cu med, cong]
+11.2 +8.6 84 +7 +7 1018.4 1006.8
12 15.12 СЗ 9 20 км 1/1 900 м
[Cu med, cong]
+12.2 +8.9 80 +9 +9 1018.8 1007.3
15 15.12 СЗ 7 20 км 1/1 900 м
[Cu med, cong]
+11.8 +8.1 78 +9 +9 1019.2 1007.7
18 15.12 СЗ 2 15 км 1/1 900 м
[Cu med, cong]
+10.8 +8.0 83 +10 +10 1020.4 1008.9 +12.4
06 16.12 ЮВ 1 20 км 9/9 750 м
[Cu Sc]
+8.2 +7.6 96 +8 +8 1020.4 1008.8 +8.2
09 16.12 ЮВ 1 20 км 5/1 750 м
[Cu med, cong As trans Ci fib]
+11.0 +9.7 92 +11 +13 1020.6 1009.0
12 16.12 Ю 6 20 км 6/6 750 м
[Cu med, cong]
+15.8 +14.2 90 +14 +15 1018.5 1007.1
15 16.12 ЮЗ 9 12 км 9/9 450 м
[Cu med, cong]
+15.2 +13.9 92 +13 +13 1017.8 1006.4
18 16.12 ЮЗ 8 15 км 6/4 600 м
[Cu med, cong Ci fib]
+14.4 +13.3 93 +12 +12 1017.2 1005.8 +16.0
06 17.12 СЗ 9 20 км 8/4 450 м
[Cu Sc Ac trans Ci fib]
+12.8 +11.0 89 +10 +10 1018.5 1007.0 +12.0
09 17.12 СЗ 14 15 км 8/6 600 м
[Cu med, cong Ci fib]
+13.4 +11.1 86 +10 +10 1020.5 1009.0
12 17.12 СЗ 14 18 км 8/8 540 м
[Cu med, cong]
+13.8 +11.5 86 +10 +10 1020.0 1008.6
15 17.12 СЗ 16 15 км {дождь} 6/6 540 м
[Cu Sc]
+12.8 +9.8 82 +9 +9 1020.4 1008.9
18 17.12 СЗ 12 12 км {дождь} 10/10 540 м
[Cu Sc]
+12.6 +10.7 88 +9 +9 1023.1 1011.6 +14.2 0.1
06 18.12 ЮВ 1 20 км 1/0
[As trans]
+6.6 +5.7 94 +7 +7 1026.8 1015.0 +6.6
09 18.12 ЮВ 1 25 км 5/1 600 м
[Cu med, cong Ac trans Ci fib]
+8.8 +7.9 94 +9 +11 1027.7 1016.0
12 18.12 З 1 25 км 5/1 600 м
[Cu med, cong Ac trans Ci fib]
+14.2 +11.2 82 +15 +19 1027.1 1015.6
15 18.12 0 25 км 8/1 600 м
[Cu hum Ci fib]
+13.4 +10.4 82 1026.5 1015.0
18 18.12 СЗ 1 20 км 6/1 600 м
[Cu hum Ci ing]
+9.6 +9.1 97 +10 +10 1026.1 1014.4 +14.2

 

Местоположение метеостанции Capo Frasca (Италия): широта 39.75 долгота 8.47 высота над уровнем моря 89 м.

В архиве по умолчанию представлена погода в Capo Frasca за последнюю неделю. Архивные данные за месяц целиком и за предыдущие месяцы, начиная с января 2011 года, Вы можете получить, выбрав интересующий диапазон дат из раскрывающегося списка и нажав кнопку "Ввод!".


*Определитесь, кто Вы:
робот инопланетянин человек

Внимание! Время в таблицах - всемирное. Для получения местного времени необходимо прибавить поправку, которая в Capo Frasca равна 1 ч.

Смотрите также архив погоды в соседних городах и на ближайших метеорологических станциях:

Погода в Decimomannu (Италия) (62 км)
Погода в Capo Caccia (Италия) (95 км)
Погода в Alghero (Италия) (99 км)
Погода в Capo Bellavista (Италия) (109 км)
Погода в Capo Carbonara (Италия) (116 км)
Погода в Olbia (Италия) (156 км)
Погода в Cap Pertusato (Франция) (190 км)
Погода в Figari (Франция) (202 км)
Погода в La Parata (Франция) (242 км)
Погода в Ajaccio (Франция) (243 км)

Пояснения к столбцам:

Ветер - указаны скорость ветра в м/с - средняя за 10 мин, порывы в срок и между сроками (в фигурных скобках) и направление, откуда дует ветер: С - северный, СВ - северо-восточный, В - восточный, ЮВ - юго-восточный, Ю - южный, ЮЗ - юго-западный, З - западный, СЗ - северо-западный.
Видимость - горизонтальная дальность видимости в метрах или километрах. При видимости от 1 до 10 км при отсутствии осадков обычно наблюдается дымка, при ухудшении видимости до 1 км и менее - туман. В сухую погоду видимость может ухудшаться дымом, пылью или мглою.
Явления - указаны атмосферные явления, наблюдавшиеся в срок или в последний час перед сроком; фигурными скобками обозначены явления, наблюдавшиеся между сроками (за 1-3 часа до срока); квадратными скобками обозначены град или гололедные отложения с указанием их диаметра в мм.
Облачность - указаны через наклонную черту общая и нижняя облачность в баллах и высота нижней границы облаков в метрах; квадратными скобками обозначены формы облаков: Ci - перистые, Cs - перисто-слоистые, Cc - перисто-кучевые, Ac - высококучевые, As - высокослоистые, Sc - слоисто-кучевые, Ns - слоисто-дождевые, Cu - кучевые, Cb - кучево-дождевые. Подробнее классификацию облаков см. в Атласе облаков (PDF).
T - Температура воздуха - температура, измеренная на высоте 2 м над землей.
Td - Температура точки росы - температура, при понижении до которой содержащийся в воздухе водяной пар достигнет насыщения.
f - Относительная влажность воздуха - влажноcть воздуха, измеренная на высоте 2 м над землей.
Te - Эффективная температура - температура, которую ощущает одетый по сезону человек в тени. Характеристика душности погоды. При расчете учитывается влияние влажности воздуха и скорости ветра на теплоощущения человека.
Tes - Эффективная температура на солнце - температура, которую ощущает человек, с поправкой на солнечный нагрев. Характеристика знойности погоды. Зависит от высоты солнца над горизонтом, облачности и скорости ветра. Ночью, в пасмурную погоду, а также при ветре 12 м/с и более поправка равна нулю.
P - Атмосферное давление - приведенное к уровню моря атмосферное давление.
Po - Атмосферное давление - измеренное на уровне метеостанции атмосферное давление.
Tmin - Минимальная температура - минимум температуры воздуха на высоте 2 м над землей.
Tmax - Максимальная температура - максимум температуры воздуха на высоте 2 м над землей.
R - Количество осадков - Количество выпавших осадков за период времени, мм. При наведении курсора мыши на число - период времени, за который выпало указанное количество осадков.
R24 - Количество осадков - Количество выпавших осадков за 24 часа, мм.
S - Снежный покров - Высота снежного покрова, см. При наведении курсора мыши на число - состояние снежного покрова и степень покрытия местности в баллах.